Vertical_Velocity
3 2 -0 1 2 3 3 3 2 1 1 0 -1 -1 -0 1 4 5 6 5 5 4 3 2 2 2 2 2 2 1 1 1 2 2 1 -0 -1 -1 -0 0 0 1 1 1 1 1 1 1 1 1 2 2 1 1 1 1 1 -0 -2 -2 -2 -1 -0 -0 -0 -0 -1 -1 -1 -1 -1 -1 -1 -1 -1 -1 -1 -1 -1 -1 -1 -1 -1 -1 -0 -0
4 2 1 2 3 3 2 1 2 2 2 1 -0 -0 0 1 2 3 3 2 2 2 2 2 1 1 1 1 1 1 1 1 2 1 0 -0 -1 -0 -0 0 0 0 -0 0 0 0 1 1 1 2 2 2 2 1 1 0 -0 -1 -2 -2 -1 -1 -0 -0 -0 -0 -1 -1 -1 -1 -1 -1 -1 -1 -1 -1 -1 -1 -1 -1 -1 -1 -1 -1 -1 -1
4 3 2 3 3 3 2 2 2 3 3 2 2 2 2 1 1 1 1 1 1 1 2 2 2 1 1 1 0 -0 0 0 0 -0 -1 -1 -1 -1 -1 -1 -0 -0 -0 0 0 1 1 2 2 2 2 2 1 1 0 -0 -1 -1 -2 -2 -1 -1 -1 -1 -1 -1 -1 -1 -1 -1 -1 -1 -1 -1 -0 -0 -1 -1 -1 -1 -1 -1 -1 -1 -1 -1
2 3 3 2 2 2 3 2 3 3 4 4 4 4 4 3 2 2 1 1 1 2 2 3 3 2 2 1 -0 -1 -1 -1 -1 -2 -2 -2 -1 -1 -1 -0 -0 0 0 1 1 2 2 2 2 2 2 1 1 0 -0 -1 -1 -2 -2 -1 -1 -1 -1 -1 -1 -1 -1 -1 -1 -1 -1 -1 -0 -0 -0 -0 -0 -0 -1 -1 -1 -1 -1 -1 -1 -2
2 4 4 2 2 2 3 3 3 3 3 4 4 5 5 5 4 4 3 3 3 3 3 3 3 3 3 2 0 -1 -1 -1 -1 -1 -1 -0 -0 0 1 1 1 1 2 2 2 2 2 2 2 1 1 0 -0 -0 -1 -1 -2 -2 -2 -1 -1 -1 -1 -1 -1 -0 -0 -0 -0 -0 -0 -0 -0 -0 0 0 0 -0 -0 -1 -1 -1 -1 -1 -2 -2
2 3 3 2 2 3 2 2 2 3 2 2 2 3 3 5 6 6 4 4 4 4 4 3 3 3 3 2 2 1 0 -0 -0 0 1 1 1 2 2 2 2 2 2 2 2 2 2 1 1 0 0 -0 -0 -1 -1 -1 -1 -1 -1 -1 -0 -0 -0 -0 -0 -0 -0 -0 -0 -0 -0 -0 -0 -0 0 1 0 0 -0 -1 -1 -1 -1 -1 -1 -1
2 1 1 2 3 2 2 2 2 2 1 0 1 2 2 4 5 5 4 4 4 4 4 4 3 3 3 3 2 2 2 2 2 2 2 2 2 2 3 3 3 2 2 2 2 1 1 1 0 0 -0 -0 -0 -1 -1 -1 -1 -1 -0 -0 -0 0 0 0 0 0 0 0 0 0 -0 -0 -0 -0 -0 0 0 0 -0 -0 -1 -1 -1 -1 -1 -1
3 2 2 3 2 1 1 2 2 2 0 -0 -0 0 1 2 3 3 4 5 7 7 6 5 4 4 4 4 3 2 2 2 3 3 3 3 3 3 3 3 3 3 2 2 2 1 1 1 0 0 0 0 0 -0 -0 -0 -0 -0 -0 -0 -0 0 0 0 0 0 0 0 -0 -0 -0 -0 -1 -1 -1 -1 -0 -0 -0 -0 -0 -1 -1 -1 -1 -1
2 3 3 2 0 -0 0 1 1 1 1 0 -0 -1 -0 0 1 2 4 7 8 7 5 5 6 6 7 6 5 4 3 2 2 3 3 3 3 3 3 4 4 3 3 2 2 1 1 1 1 1 0 0 1 1 1 1 0 -0 -0 -0 -0 -0 -0 -0 0 0 -0 -0 -0 -0 -0 -0 -1 -1 -1 -1 -1 -1 -1 -1 -1 -1 -1 -1 -1 -1
1 2 3 2 -1 -2 -1 -0 -0 0 2 2 2 1 -1 -1 -1 0 3 4 3 2 4 7 9 10 10 8 7 6 5 4 3 3 4 4 4 4 4 4 4 4 3 2 2 2 2 2 2 1 1 1 1 1 1 1 1 0 -0 -0 -1 -1 -1 -0 -0 -0 -0 -0 -0 -0 -0 -0 -1 -1 -1 -2 -2 -2 -1 -1 -1 -1 -1 -1 -1 -1
0 1 2 2 1 -0 -0 -1 -1 -0 2 5 5 4 1 -1 -2 -2 -0 -1 -0 1 6 10 11 11 10 9 7 6 3 2 2 3 4 5 6 6 6 5 4 4 3 2 2 2 2 3 2 2 2 2 2 2 2 2 1 1 0 -0 -1 -1 -1 -1 -0 -0 -0 -0 -0 -0 -0 -0 -1 -1 -1 -1 -1 -1 -1 -1 -1 -1 -1 -1 -1 -1
-1 0 1 1 1 1 1 -0 -0 1 3 6 6 4 2 -1 -3 -4 -5 -4 -2 2 7 8 7 5 4 5 6 5 2 0 0 1 2 3 4 5 6 5 4 3 2 2 2 2 3 3 3 3 2 2 2 2 2 2 2 1 1 0 -0 -0 -0 -0 -0 -0 -0 -0 -0 -0 -0 -0 -1 -1 -1 -1 -1 -1 -1 -1 -1 -1 -1 -1 -1 -1
-1 -0 0 0 0 1 1 -1 -1 0 3 4 2 -0 -3 -3 -3 -2 -3 -3 -1 2 6 6 5 2 0 2 4 6 5 2 1 0 1 3 4 4 4 4 3 2 1 1 1 2 2 2 2 3 2 2 2 2 2 2 2 1 1 1 1 0 0 0 -0 -0 -0 -1 -1 -1 -1 -1 -1 -1 -1 -1 -1 -1 -1 -1 -1 -1 -1 -1 -1 -2
-0 1 2 2 1 1 -0 -3 -3 -2 -1 -1 -2 -4 -5 -3 -0 2 3 3 2 2 5 8 7 3 1 2 5 8 8 6 5 5 6 6 6 4 2 3 3 3 2 1 1 1 1 1 1 2 2 2 2 2 2 2 2 2 2 1 1 1 1 1 0 -0 -0 -1 -1 -1 -1 -1 -1 -1 -1 -1 -1 -0 -0 -1 -1 -1 -1 -1 -1 -1
-0 1 2 2 2 1 -0 -2 -3 -4 -5 -4 -3 -2 -0 1 3 4 5 4 2 1 3 6 6 5 2 1 4 8 11 10 9 8 7 7 6 4 3 4 4 4 3 2 2 2 1 2 2 2 1 1 1 1 1 1 1 1 1 2 2 2 2 1 0 -0 -1 -1 -2 -2 -2 -1 -1 -1 -1 -1 -0 -0 -0 -0 -0 -0 -1 -1 -1 -1
1 1 2 2 1 1 1 -0 -1 -1 -2 -2 -1 1 2 2 2 2 1 -0 -0 1 3 3 4 4 4 1 3 7 11 11 8 4 1 3 4 4 4 5 5 4 4 4 3 3 2 4 4 4 2 2 2 2 1 1 1 1 1 2 2 2 1 1 -0 -1 -1 -2 -2 -2 -2 -2 -1 -1 -1 -1 -0 -0 -0 -0 -0 -0 -0 -0 -1 -1
3 3 4 2 2 2 3 2 2 2 2 1 1 0 1 0 -0 -1 -1 -0 1 3 4 1 -2 -4 -4 -2 2 7 11 9 4 -0 -4 -1 1 3 3 4 4 3 3 5 4 3 2 4 4 4 3 2 2 2 2 1 1 1 1 2 2 1 0 -0 -1 -1 -1 -2 -2 -2 -2 -2 -2 -1 -1 -1 -0 -0 -0 -0 -0 -0 -0 -0 -0 -1
6 5 4 2 1 2 2 3 4 3 3 4 3 2 2 1 1 0 0 2 2 3 4 1 -4 -9 -12 -8 -3 2 7 6 3 -1 -3 -3 -1 1 2 4 4 4 4 5 5 3 2 3 3 3 2 2 2 2 2 2 2 1 2 1 1 -0 -0 -0 -1 -1 -1 -2 -2 -2 -2 -2 -2 -2 -1 -1 -1 -0 -0 -0 -0 -0 -0 -0 -0 -1
10 8 5 2 0 -0 -0 2 3 4 4 4 5 5 4 5 5 4 3 3 2 1 1 1 -0 -3 -6 -8 -6 -3 2 2 2 1 1 -1 -0 2 4 6 8 8 6 6 5 4 2 3 3 3 3 3 4 3 3 2 1 1 1 0 0 -0 -0 -0 -0 -1 -2 -2 -2 -2 -2 -2 -2 -2 -2 -1 -1 -1 -0 -0 -0 -0 -0 -0 -1 -1
11 11 9 5 2 1 1 1 1 1 2 2 3 4 4 6 6 6 5 4 4 3 3 2 2 1 -2 -1 0 2 1 3 4 5 5 2 3 5 7 9 11 12 9 7 6 4 2 2 1 2 3 4 4 3 2 1 0 -0 -0 0 0 1 1 0 -0 -1 -2 -3 -2 -2 -2 -2 -2 -2 -2 -1 -1 -1 -0 -0 -0 -0 -1 -1 -1 -1
8 10 11 7 5 4 3 1 -1 -2 -0 1 2 3 4 4 4 3 3 3 4 6 9 8 6 3 -1 1 2 3 1 3 5 6 6 5 6 7 8 10 14 16 14 10 7 4 2 1 0 0 2 4 4 3 2 0 -0 -0 0 1 1 1 1 -0 -1 -2 -3 -2 -2 -2 -2 -2 -2 -2 -2 -1 -1 -1 -0 -0 -0 -1 -1 -2 -2 -2
3 5 8 9 8 6 4 3 1 1 2 3 3 3 3 2 1 0 1 1 2 5 8 7 4 2 -0 1 2 2 -0 1 1 -0 -2 -0 1 2 1 5 12 19 19 15 10 6 3 1 -0 0 2 4 4 3 2 1 1 1 1 1 1 1 0 -1 -2 -2 -2 -2 -2 -2 -2 -2 -2 -2 -2 -1 -1 -0 -0 -0 -1 -1 -2 -2 -2 -2
1 0 1 3 4 5 4 5 5 6 6 5 4 3 2 1 -0 -0 0 -0 0 1 1 -0 -1 -1 1 3 4 4 3 3 2 0 -2 -4 -5 -6 -7 -4 3 11 15 14 10 6 2 -0 -2 -2 0 2 3 3 2 2 2 2 2 1 0 -0 -0 -1 -1 -2 -2 -2 -2 -2 -2 -2 -2 -1 -1 -1 -1 -1 -1 -1 -1 -1 -2 -2 -2 -2
-0 -1 -1 -1 0 1 2 4 6 8 9 8 7 5 3 2 1 1 -0 -0 0 1 0 0 2 3 4 5 6 6 6 6 6 4 1 -2 -4 -4 -4 -3 0 4 8 7 5 2 -0 -2 -4 -4 -4 -1 1 2 2 3 3 3 1 0 -0 -0 -0 -0 -1 -2 -2 -2 -2 -2 -1 -1 -1 -1 -1 -1 -1 -1 -1 -1 -1 -2 -2 -3 -2 -2
-0 -0 -1 -1 -1 -1 -0 1 3 5 7 9 9 8 6 5 3 2 1 3 3 4 3 4 4 5 4 3 4 5 7 7 6 5 1 -0 0 2 4 4 4 4 4 2 0 -2 -3 -3 -4 -4 -5 -4 -2 -0 2 3 3 2 1 1 1 2 1 -0 -1 -2 -2 -2 -2 -1 -1 -1 -1 -1 -1 -1 -2 -2 -2 -2 -2 -2 -3 -3 -2 -1
-1 -2 -2 -1 -1 -1 -0 0 1 2 3 5 7 8 8 7 6 6 6 6 6 4 3 3 3 2 2 2 4 6 9 8 7 5 2 0 1 4 6 6 5 4 4 2 1 -0 -1 -1 -2 -2 -2 -3 -3 -2 0 2 2 1 1 2 3 3 3 0 -1 -3 -3 -2 -1 -1 -1 -1 -1 -1 -2 -2 -2 -2 -2 -2 -3 -3 -3 -2 -2 -1
-0 -0 -0 -0 -0 -0 -0 -0 -0 0 0 1 3 4 6 8 9 10 9 7 5 3 2 2 1 1 3 5 7 9 9 7 6 5 4 1 0 2 5 5 5 5 6 5 4 3 2 1 -0 -0 0 -0 -1 -2 -0 0 1 1 1 2 3 4 3 1 -1 -2 -3 -2 -2 -1 -1 -1 -1 -2 -2 -3 -3 -3 -2 -3 -3 -4 -3 -2 -2 -1
1 0 -0 -0 -1 -1 -1 -1 -1 -1 -1 -0 0 1 3 5 7 9 10 8 6 5 4 3 2 1 3 6 8 9 8 6 5 5 5 2 0 0 2 3 4 6 6 6 6 6 4 3 2 1 2 1 1 0 1 2 2 1 1 1 2 3 3 2 -0 -2 -3 -2 -2 -1 -1 -1 -2 -2 -3 -3 -3 -2 -2 -3 -4 -4 -3 -2 -2 -2
0 -0 -1 -1 -1 -2 -2 -2 -2 -1 -2 -1 -1 -0 0 2 3 5 7 7 7 6 6 5 4 2 2 4 6 8 8 6 5 4 4 3 1 0 1 1 2 4 4 3 4 4 5 4 3 2 2 1 -0 -0 1 2 2 2 1 2 3 3 3 1 -0 -2 -2 -2 -1 -1 -1 -2 -2 -3 -3 -3 -2 -2 -2 -3 -4 -4 -3 -2 -2 -2
-1 -1 -1 -1 -1 -1 -2 -2 -2 -2 -2 -2 -2 -1 -1 0 1 1 3 4 4 4 4 4 4 4 4 5 7 9 9 7 5 4 5 5 4 3 2 2 2 3 2 1 0 1 3 3 2 1 0 -2 -3 -2 -0 2 2 3 2 2 2 2 1 -0 -1 -1 -1 -1 -1 -1 -2 -2 -2 -3 -3 -3 -3 -2 -2 -3 -3 -4 -3 -3 -2 -2
-2 -3 -3 -2 -2 -2 -2 -2 -2 -2 -2 -2 -2 -2 -1 -1 -0 -0 -0 1 1 2 2 2 2 2 3 4 4 5 5 5 4 4 5 5 4 3 3 3 4 4 4 3 0 -1 0 2 2 2 0 -2 -2 -2 0 2 2 2 2 1 0 -0 -1 -1 -1 -1 -1 -1 -1 -2 -2 -3 -3 -3 -3 -3 -3 -3 -2 -3 -3 -4 -4 -3 -2 -2
-3 -3 -3 -3 -3 -3 -3 -2 -2 -2 -2 -2 -2 -2 -1 -1 -0 -0 -0 -0 -0 0 0 1 1 1 1 2 1 0 0 2 3 4 5 4 4 4 5 4 5 5 6 6 4 1 -2 1 2 3 3 1 0 0 1 2 2 2 0 -1 -2 -2 -2 -2 -1 -0 -0 -1 -1 -2 -3 -3 -3 -3 -3 -3 -3 -3 -3 -3 -3 -3 -3 -3 -3 -3
-2 -2 -2 -2 -3 -3 -3 -3 -2 -2 -2 -2 -1 -1 -1 -0 -0 0 0 0 0 0 0 0 0 0 0 1 2 2 2 2 3 3 4 4 4 5 6 6 5 4 5 6 7 5 1 1 1 2 2 2 1 1 1 1 1 0 -1 -2 -2 -3 -2 -1 -1 -0 -1 -1 -2 -2 -3 -3 -3 -3 -3 -3 -3 -3 -2 -2 -3 -3 -3 -3 -3 -3
-0 -0 -0 -1 -1 -2 -2 -2 -2 -2 -2 -2 -1 -1 -1 -1 -0 0 0 1 1 1 1 1 1 1 1 1 1 2 3 4 4 4 4 5 5 5 5 4 4 4 4 4 5 5 5 4 2 1 1 2 2 1 1 1 0 -1 -2 -2 -2 -2 -1 -1 -1 -1 -2 -2 -2 -2 -3 -3 -3 -3 -3 -3 -3 -3 -2 -2 -2 -2 -2 -2 -3 -3
-0 0 0 -0 -0 -1 -1 -2 -2 -2 -2 -2 -2 -1 -1 -1 -1 -0 -0 0 0 0 1 1 1 1 1 1 1 1 2 4 4 4 4 4 4 5 4 4 4 4 3 2 2 2 3 4 3 2 1 1 1 0 -0 -0 -1 -1 -1 -1 -1 -0 -0 -0 -1 -2 -2 -2 -2 -2 -3 -3 -3 -3 -3 -3 -3 -3 -2 -1 -1 -1 -1 -2 -3 -3
-0 -0 -0 0 -0 -0 -1 -1 -1 -2 -2 -2 -2 -2 -2 -2 -1 -1 -1 -1 -0 -0 -0 -0 -0 -0 -0 -0 -0 0 1 2 2 2 2 2 3 3 3 4 4 3 3 3 2 1 1 2 2 2 1 0 -0 -1 -1 -1 -1 -0 -0 0 0 -0 -0 -1 -1 -2 -2 -3 -3 -2 -3 -3 -3 -3 -3 -3 -3 -2 -2 -1 -1 -0 -1 -1 -2 -3
-1 -0 -0 -0 -0 -0 -0 -1 -1 -1 -2 -2 -2 -2 -2 -2 -2 -2 -2 -1 -1 -1 -1 -1 -1 -1 -1 -1 -1 -1 -0 -0 -0 -0 0 1 1 2 2 3 3 3 3 3 3 2 2 2 2 2 1 0 -1 -2 -2 -1 -0 0 1 1 1 -0 -1 -2 -2 -2 -2 -3 -2 -2 -3 -3 -3 -3 -3 -3 -2 -2 -1 -1 -1 -0 -0 -1 -1 -2
-1 -1 -0 -0 -0 -0 -0 -1 -1 -1 -1 -2 -2 -2 -2 -2 -2 -2 -2 -2 -2 -2 -2 -1 -1 -2 -2 -2 -2 -2 -2 -2 -2 -2 -1 -0 0 1 2 2 2 2 3 2 2 2 2 3 3 3 2 1 0 -1 -1 -0 0 1 1 1 0 -0 -2 -3 -3 -2 -2 -2 -2 -2 -3 -3 -3 -3 -3 -3 -2 -1 -1 -1 -1 -1 -0 -0 -1 -1
-1 -1 -0 -0 -0 -0 -0 -1 -1 -1 -1 -1 -1 -1 -1 -1 -1 -1 -1 -1 -1 -1 -1 -1 -2 -2 -2 -3 -3 -3 -3 -3 -3 -3 -2 -2 -1 0 1 1 2 2 2 2 2 2 2 2 2 1 1 1 1 1 1 1 1 1 1 0 -0 -1 -2 -2 -2 -2 -2 -2 -2 -2 -3 -3 -3 -3 -3 -2 -2 -1 0 0 0 -0 -0 -0 -0 -1
-0 -0 -0 0 0 0 -0 -1 -1 -1 -1 -1 -1 -1 -1 -1 -1 -1 -1 -1 -1 -1 -1 -1 -1 -1 -2 -2 -2 -3 -3 -3 -3 -3 -3 -2 -2 -1 -0 0 0 0 1 1 1 1 1 1 1 1 1 1 1 1 1 1 0 -0 -0 1 1 -0 -2 -2 -2 -2 -2 -2 -2 -2 -3 -3 -3 -2 -2 -2 -1 -0 0 1 1 0 0 -0 -0 -1
0 0 0 0 0 0 -0 -0 -0 -1 -1 -1 -1 -1 -1 -1 -0 -0 -0 -0 -0 -0 -0 -0 -0 -1 -1 -1 -1 -1 -2 -2 -2 -2 -1 -1 -1 -1 -1 -1 -1 -0 -0 -0 0 0 1 1 1 1 1 1 1 1 1 0 -0 -1 -1 -0 0 1 -0 -1 -2 -2 -2 -2 -2 -3 -3 -2 -2 -1 -1 -0 -0 -0 0 0 0 0 -0 -0 -1 -1
0 0 0 1 0 0 0 -0 -0 -1 -1 -1 -1 -1 -1 -1 -1 -1 -0 -0 0 0 0 -0 -0 -0 -0 -0 -0 -0 -0 -0 -0 -0 -0 -0 -0 -0 -1 -1 -1 -1 -1 -1 -1 -1 -0 0 0 0 0 0 1 1 0 -0 -1 -1 -1 -1 -0 0 -0 -1 -1 -1 -1 -1 -2 -3 -3 -2 -1 -1 0 0 0 0 0 0 -0 -0 -0 -1 -1 -2
0 0 0 0 0 0 0 0 0 -0 -0 -0 -0 -1 -1 -1 -1 -1 -1 -1 -0 -0 0 0 0 -0 -0 -0 -0 0 0 0 0 0 -0 -0 -0 -0 -0 -0 -1 -1 -1 -2 -2 -1 -1 -1 -1 -1 -0 -0 -0 -0 -0 0 -0 -1 -1 -1 -1 -1 -0 0 0 0 -1 -2 -2 -2 -2 -2 -1 -0 0 0 1 1 1 1 0 -0 -1 -1 -2 -2
0 0 0 0 0 0 1 1 1 1 1 1 0 0 -0 -0 -0 -0 -0 -0 -0 -0 -0 -0 -0 -0 -0 -0 -0 -0 -0 -0 -0 -0 -0 -0 -1 -1 -1 -1 -1 -1 -1 -2 -2 -2 -2 -2 -1 -1 -0 -0 -0 -0 -0 1 1 1 0 -0 -1 -2 -1 0 1 0 -1 -1 -2 -2 -1 -1 -0 -0 0 0 1 1 1 1 1 0 -0 -1 -2 -2
-0 0 0 0 0 1 1 1 1 1 1 1 1 0 0 0 0 0 0 1 0 0 -0 -0 -0 -1 -1 -1 -1 -1 -1 -1 -1 -1 -1 -1 -1 -1 -1 -1 -1 -1 -1 -1 -1 -1 -2 -2 -1 -1 -0 -0 -0 -0 0 1 2 2 2 0 -1 -1 -1 -0 -1 -1 -1 -1 -1 -0 -0 -0 -0 -0 -0 0 1 2 1 1 0 -0 -0 -1 -1 -2
-0 0 0 0 0 1 1 1 1 1 1 1 0 0 -0 -0 -0 -0 -0 0 1 1 1 1 0 -0 -1 -1 -1 -1 -1 -1 -1 -1 -2 -2 -2 -2 -2 -2 -2 -2 -2 -1 -1 -1 -1 -1 -0 -0 -0 -0 0 1 1 1 1 1 1 0 -0 -0 0 -0 -1 -2 -2 -1 -1 -0 -0 -0 -1 -1 -1 0 1 1 1 0 -0 -1 -0 -0 -1 -1
-0 -0 -0 -0 -0 0 0 0 1 1 1 0 0 -0 -0 -0 -0 -1 -1 -0 -0 0 1 1 2 1 1 -0 -1 -1 -1 -1 -1 -1 -1 -2 -2 -2 -2 -2 -2 -2 -2 -2 -1 -1 -0 1 1 1 1 1 1 2 2 1 1 0 0 0 -0 -0 -0 -1 -2 -2 -2 -1 -1 -1 -0 -1 -1 -1 -0 -0 -0 0 0 0 0 -0 -1 -1 -1 -1
-0 -0 -0 -0 -0 -0 -0 -0 -0 0 0 0 0 -0 -0 -0 -1 -1 -1 -1 -1 -1 -0 1 1 1 1 0 0 -0 -1 -1 -1 -1 -1 -1 -1 -1 -1 -1 -2 -2 -2 -2 -1 -1 -0 1 1 1 1 2 2 2 2 1 -0 -0 -0 -0 -0 -0 -0 -1 -1 -1 -1 -1 -1 -1 -1 -1 -1 -1 -1 -2 -2 -1 0 1 1 0 0 -1 -1 -1
-1 -0 -0 -0 -1 -1 -1 -1 -0 -0 -0 0 0 0 -0 -0 -1 -1 -1 -1 -1 -1 -1 -0 -0 0 0 0 0 0 -0 -0 -0 -0 -1 -1 -1 -1 -1 -1 -1 -1 -2 -2 -2 -1 -0 -0 0 1 1 1 2 2 2 0 -0 -1 -0 -0 -1 -1 -0 -0 -0 -0 -1 -0 -0 -0 -0 -1 -1 -2 -3 -4 -4 -4 -1 -0 1 1 1 0 -1 -1
-1 -1 -1 -1 -1 -1 -1 -1 -1 -1 -0 -0 0 0 0 -0 -1 -1 -2 -2 -2 -2 -1 -1 -0 -0 -0 -0 -0 -0 -0 -0 -0 -0 -0 -0 -0 -1 -1 -1 -1 -1 -2 -2 -2 -1 -1 -1 -1 -0 1 1 1 1 1 -0 -1 -1 -0 -1 -1 -0 -0 -0 -0 -0 -0 -0 0 0 0 0 -0 -1 -3 -4 -5 -5 -4 -2 -0 1 2 1 -0 -1
-1 -1 -1 -1 -1 -1 -1 -1 -1 -1 -1 -0 -0 0 0 0 -0 -1 -1 -2 -2 -2 -2 -1 -1 -0 -0 -0 -0 -0 -0 -0 -0 -0 -0 -0 -0 -0 -0 -0 -1 -1 -1 -1 -1 -0 0 -0 -0 -0 0 0 0 0 -1 -0 -0 0 0 0 -0 -0 -0 -0 -0 -0 -0 0 0 0 1 0 -0 -1 -2 -4 -5 -6 -6 -4 -1 1 3 2 0 -1
Height
1428 1429 1431 1431 1433 1434 1435 1436 1437 1439 1440 1441 1442 1443 1445 1446 1447 1449 1450 1451 1452 1453 1454 1456 1456 1457 1458 1459 1460 1461 1461 1463 1463 1464 1465 1466 1468 1469 1470 1471 1473 1474 1475 1476 1477 1478 1478 1479 1480 1481 1482 1482 1483 1483 1483 1484 1484 1485 1486 1486 1488 1489 1489 1490 1491 1492 1492 1493 1494 1495 1495 1496 1496 1497 1497 1498 1498 1499 1499 1500 1500 1501 1501 1502 1502 1503
1428 1429 1430 1431 1432 1433 1434 1435 1436 1437 1439 1440 1441 1442 1444 1445 1446 1447 1449 1450 1451 1452 1454 1455 1456 1457 1457 1458 1459 1460 1461 1462 1463 1464 1465 1466 1467 1468 1469 1471 1471 1473 1474 1475 1476 1476 1477 1478 1479 1480 1480 1481 1481 1482 1482 1483 1483 1484 1485 1486 1487 1488 1489 1489 1490 1491 1492 1492 1493 1494 1494 1495 1495 1496 1496 1497 1497 1497 1498 1498 1499 1500 1500 1501 1501 1501
1427 1428 1429 1430 1431 1432 1433 1435 1436 1437 1438 1439 1440 1441 1443 1444 1445 1446 1448 1449 1451 1452 1453 1454 1455 1456 1457 1458 1459 1460 1460 1461 1462 1463 1464 1465 1466 1468 1469 1470 1471 1472 1473 1474 1475 1476 1476 1477 1478 1479 1479 1480 1480 1481 1481 1482 1482 1483 1484 1485 1486 1487 1488 1489 1490 1490 1491 1492 1492 1493 1493 1494 1494 1495 1495 1496 1496 1497 1497 1497 1498 1499 1499 1500 1500 1500
1426 1427 1428 1429 1431 1432 1433 1434 1435 1436 1437 1438 1439 1441 1442 1443 1444 1446 1447 1448 1450 1451 1452 1453 1454 1455 1456 1457 1458 1459 1460 1461 1461 1463 1464 1465 1466 1467 1468 1469 1470 1471 1472 1473 1474 1475 1475 1476 1477 1477 1478 1479 1479 1480 1481 1481 1482 1483 1484 1485 1486 1486 1487 1488 1489 1490 1490 1491 1491 1492 1492 1493 1493 1494 1495 1495 1496 1496 1496 1496 1497 1497 1498 1499 1499 1499
1425 1426 1427 1428 1430 1431 1432 1433 1434 1435 1436 1437 1438 1440 1441 1442 1443 1445 1446 1447 1449 1450 1451 1452 1453 1454 1455 1456 1457 1458 1459 1460 1461 1462 1463 1464 1465 1466 1467 1468 1469 1470 1471 1472 1473 1473 1474 1475 1476 1476 1477 1478 1478 1479 1480 1481 1481 1482 1483 1484 1485 1486 1487 1487 1488 1489 1490 1490 1491 1491 1491 1492 1493 1493 1494 1494 1495 1495 1496 1496 1496 1497 1497 1498 1498 1498
1424 1425 1426 1427 1428 1429 1431 1432 1433 1434 1435 1436 1437 1438 1440 1441 1442 1444 1445 1446 1447 1449 1450 1451 1452 1453 1454 1456 1456 1458 1459 1460 1461 1461 1462 1463 1464 1465 1466 1467 1468 1469 1470 1471 1472 1473 1473 1474 1475 1476 1476 1477 1478 1478 1479 1480 1481 1482 1482 1483 1484 1485 1486 1487 1487 1488 1489 1489 1490 1490 1491 1491 1491 1492 1493 1493 1494 1494 1495 1495 1495 1496 1496 1497 1497 1497
1422 1424 1425 1426 1427 1428 1429 1431 1431 1432 1434 1435 1436 1437 1438 1440 1441 1442 1443 1445 1446 1447 1449 1450 1451 1452 1453 1455 1456 1457 1458 1459 1460 1461 1462 1463 1464 1465 1466 1467 1468 1469 1469 1470 1471 1472 1473 1473 1474 1475 1476 1476 1477 1478 1479 1479 1480 1481 1482 1483 1483 1484 1485 1486 1486 1487 1487 1488 1489 1489 1490 1490 1491 1491 1491 1492 1493 1493 1493 1494 1494 1495 1495 1496 1496 1496
1421 1422 1424 1425 1426 1427 1428 1429 1430 1431 1432 1434 1435 1436 1437 1438 1439 1441 1442 1443 1444 1446 1447 1448 1450 1451 1453 1454 1455 1456 1457 1458 1459 1460 1461 1462 1463 1464 1465 1466 1467 1468 1469 1470 1470 1471 1472 1473 1474 1474 1475 1476 1476 1477 1478 1479 1480 1480 1481 1482 1482 1483 1484 1485 1485 1486 1486 1487 1487 1488 1488 1489 1489 1490 1490 1491 1491 1492 1492 1492 1493 1493 1494 1494 1494 1495
1420 1421 1422 1423 1424 1425 1426 1427 1428 1430 1431 1432 1433 1435 1436 1437 1438 1439 1441 1441 1442 1444 1445 1447 1449 1450 1451 1453 1454 1455 1456 1457 1458 1459 1460 1461 1462 1463 1465 1466 1466 1467 1468 1469 1470 1471 1471 1472 1473 1474 1474 1475 1476 1477 1477 1478 1479 1479 1480 1481 1481 1482 1483 1484 1484 1485 1485 1486 1486 1487 1487 1488 1488 1488 1489 1489 1490 1490 1491 1491 1491 1492 1492 1492 1493 1493
1418 1419 1421 1421 1423 1424 1425 1426 1427 1428 1430 1431 1432 1433 1434 1436 1436 1438 1439 1440 1441 1442 1444 1446 1447 1449 1450 1451 1452 1453 1454 1456 1457 1458 1459 1460 1461 1463 1464 1465 1466 1466 1467 1468 1469 1470 1471 1471 1472 1473 1474 1475 1475 1476 1477 1477 1478 1479 1479 1480 1481 1481 1482 1483 1483 1484 1484 1485 1485 1486 1486 1486 1487 1487 1488 1488 1489 1489 1490 1490 1490 1491 1491 1491 1491 1491
1417 1418 1419 1420 1421 1422 1424 1425 1426 1427 1428 1430 1431 1432 1433 1434 1435 1436 1438 1439 1440 1441 1443 1445 1446 1447 1448 1449 1451 1451 1453 1454 1455 1456 1458 1459 1461 1462 1463 1464 1464 1465 1466 1467 1468 1469 1470 1471 1471 1472 1473 1474 1475 1476 1476 1477 1477 1478 1478 1479 1480 1481 1481 1481 1482 1483 1483 1484 1484 1485 1485 1486 1486 1486 1486 1487 1487 1488 1488 1489 1489 1489 1489 1489 1490 1490
1415 1416 1418 1419 1420 1421 1422 1423 1425 1426 1427 1428 1429 1430 1431 1432 1434 1435 1436 1438 1439 1440 1441 1443 1444 1445 1446 1447 1448 1450 1451 1452 1454 1455 1456 1458 1459 1460 1461 1462 1463 1464 1465 1466 1467 1468 1469 1470 1471 1471 1472 1473 1474 1475 1475 1476 1476 1477 1478 1478 1479 1479 1480 1481 1481 1482 1482 1483 1483 1484 1484 1485 1485 1485 1486 1486 1486 1487 1487 1487 1488 1488 1488 1488 1488 1488
1414 1415 1416 1417 1418 1419 1421 1422 1423 1425 1426 1426 1427 1428 1429 1431 1432 1434 1435 1436 1437 1438 1439 1441 1442 1443 1445 1446 1447 1448 1449 1451 1452 1454 1455 1456 1457 1459 1460 1461 1461 1462 1463 1465 1466 1466 1467 1469 1470 1471 1471 1472 1473 1474 1475 1475 1476 1476 1477 1477 1478 1478 1479 1480 1480 1481 1481 1482 1482 1483 1483 1483 1484 1484 1485 1485 1485 1486 1486 1486 1486 1486 1486 1486 1486 1486
1412 1414 1415 1416 1417 1418 1419 1420 1421 1423 1424 1424 1426 1426 1428 1430 1431 1432 1434 1435 1436 1437 1438 1439 1440 1441 1443 1444 1446 1447 1448 1449 1451 1452 1454 1455 1456 1457 1458 1459 1460 1461 1462 1463 1464 1465 1466 1467 1469 1470 1471 1471 1472 1473 1474 1474 1475 1476 1476 1476 1477 1478 1478 1479 1479 1480 1480 1481 1481 1481 1482 1482 1483 1483 1483 1484 1484 1484 1485 1485 1485 1485 1485 1485 1485 1485
1411 1412 1413 1414 1415 1416 1418 1419 1420 1421 1422 1423 1425 1426 1427 1429 1430 1431 1431 1433 1434 1436 1437 1438 1438 1440 1441 1443 1444 1445 1447 1448 1449 1451 1452 1453 1455 1456 1456 1457 1458 1459 1461 1462 1463 1464 1466 1466 1467 1468 1470 1470 1471 1472 1473 1473 1474 1475 1475 1476 1476 1477 1477 1478 1478 1479 1479 1480 1480 1481 1481 1481 1481 1482 1482 1483 1483 1483 1483 1484 1484 1484 1484 1484 1484 1484
1409 1411 1411 1412 1414 1415 1416 1417 1418 1420 1421 1422 1424 1425 1426 1427 1428 1429 1430 1431 1432 1434 1435 1436 1437 1439 1440 1441 1443 1444 1445 1446 1447 1449 1450 1452 1453 1455 1456 1456 1457 1458 1459 1460 1462 1463 1465 1466 1466 1467 1468 1469 1470 1471 1471 1472 1473 1474 1474 1475 1475 1476 1476 1476 1477 1477 1478 1478 1479 1479 1480 1480 1481 1481 1481 1481 1482 1482 1482 1482 1482 1482 1482 1482 1482 1482
1407 1408 1410 1411 1412 1413 1415 1416 1417 1418 1420 1421 1422 1423 1424 1425 1426 1428 1429 1430 1431 1432 1433 1434 1435 1437 1439 1441 1442 1443 1443 1444 1446 1447 1449 1451 1452 1453 1454 1455 1456 1456 1458 1459 1460 1462 1463 1464 1465 1466 1467 1468 1469 1470 1471 1471 1472 1472 1473 1474 1474 1475 1475 1475 1476 1476 1477 1477 1478 1478 1479 1479 1480 1480 1480 1481 1481 1481 1481 1481 1481 1481 1481 1481 1481 1481
1405 1406 1407 1409 1411 1412 1413 1414 1415 1416 1418 1419 1421 1422 1423 1424 1426 1426 1427 1428 1429 1430 1431 1432 1433 1435 1437 1439 1440 1441 1441 1443 1444 1445 1447 1449 1451 1451 1453 1453 1454 1455 1456 1457 1459 1460 1462 1463 1464 1465 1466 1467 1468 1469 1469 1470 1471 1471 1472 1472 1473 1473 1474 1474 1474 1475 1476 1476 1476 1477 1477 1478 1478 1479 1479 1480 1480 1480 1480 1480 1480 1480 1480 1480 1480 1479
1403 1404 1406 1407 1409 1410 1411 1412 1414 1415 1416 1417 1419 1420 1421 1422 1424 1425 1426 1427 1428 1429 1430 1431 1432 1433 1435 1436 1438 1439 1440 1441 1442 1443 1445 1446 1448 1450 1451 1451 1452 1454 1455 1456 1457 1459 1460 1461 1463 1464 1465 1466 1467 1467 1468 1469 1470 1470 1471 1471 1471 1472 1472 1473 1473 1474 1474 1475 1475 1476 1476 1477 1477 1478 1478 1478 1479 1479 1479 1479 1479 1479 1478 1478 1478 1478
1401 1402 1403 1405 1407 1408 1410 1411 1412 1413 1414 1416 1417 1418 1419 1420 1422 1423 1424 1426 1427 1428 1429 1430 1431 1432 1433 1435 1436 1437 1439 1440 1441 1442 1443 1444 1446 1447 1448 1449 1450 1451 1453 1454 1455 1457 1458 1459 1461 1462 1464 1465 1466 1466 1467 1467 1468 1469 1469 1470 1470 1471 1471 1471 1472 1472 1473 1473 1474 1474 1475 1476 1476 1476 1477 1477 1477 1477 1478 1477 1477 1477 1477 1477 1476 1476
1401 1401 1402 1403 1405 1406 1408 1409 1410 1411 1413 1414 1415 1416 1417 1419 1420 1421 1423 1424 1425 1426 1428 1428 1429 1430 1431 1433 1435 1436 1437 1438 1439 1440 1441 1442 1444 1445 1446 1447 1448 1449 1450 1451 1453 1454 1456 1457 1459 1461 1462 1463 1464 1465 1465 1466 1466 1467 1468 1468 1469 1469 1469 1470 1470 1471 1471 1472 1472 1473 1474 1474 1475 1475 1476 1476 1476 1476 1476 1476 1476 1476 1475 1475 1475 1475
1401 1401 1401 1402 1404 1405 1406 1407 1409 1410 1411 1413 1414 1415 1416 1417 1419 1420 1421 1422 1424 1425 1426 1426 1427 1428 1430 1432 1433 1434 1436 1437 1438 1439 1440 1442 1443 1444 1445 1446 1447 1448 1448 1449 1450 1452 1453 1455 1457 1459 1461 1462 1462 1463 1464 1465 1465 1466 1466 1467 1467 1467 1468 1468 1469 1469 1470 1471 1471 1472 1472 1473 1473 1474 1474 1474 1475 1475 1475 1475 1474 1474 1474 1473 1473 1473
1401 1401 1402 1402 1403 1404 1405 1406 1407 1409 1410 1411 1412 1413 1415 1416 1417 1418 1420 1421 1422 1423 1423 1424 1426 1427 1429 1431 1432 1433 1435 1436 1436 1437 1439 1440 1442 1444 1445 1446 1446 1446 1446 1446 1447 1449 1451 1453 1455 1457 1458 1460 1461 1462 1462 1463 1464 1465 1465 1465 1466 1466 1466 1466 1467 1468 1469 1469 1470 1471 1471 1471 1472 1472 1472 1473 1473 1473 1473 1473 1473 1472 1472 1472 1471 1471
1401 1401 1402 1403 1404 1405 1405 1406 1407 1407 1409 1410 1411 1412 1413 1415 1416 1417 1418 1419 1420 1421 1422 1423 1425 1427 1428 1429 1431 1432 1433 1434 1435 1436 1436 1437 1439 1441 1444 1445 1446 1446 1446 1446 1446 1447 1449 1451 1453 1455 1456 1458 1459 1460 1461 1462 1463 1463 1463 1464 1464 1464 1465 1465 1466 1466 1467 1468 1468 1469 1470 1470 1470 1471 1471 1471 1471 1471 1471 1471 1471 1471 1470 1470 1470 1470
1401 1401 1402 1403 1404 1405 1406 1406 1407 1407 1408 1408 1409 1410 1411 1413 1414 1415 1416 1418 1419 1420 1421 1422 1424 1425 1426 1428 1430 1431 1432 1433 1433 1434 1434 1435 1437 1439 1441 1442 1443 1444 1445 1445 1446 1447 1449 1450 1452 1453 1455 1456 1458 1459 1460 1461 1461 1461 1462 1462 1463 1463 1463 1464 1464 1465 1466 1466 1467 1468 1468 1468 1469 1469 1469 1470 1470 1470 1470 1470 1469 1469 1468 1468 1468 1468
1401 1401 1402 1403 1404 1405 1406 1406 1407 1407 1408 1408 1408 1409 1410 1411 1412 1414 1415 1416 1417 1418 1420 1421 1422 1423 1425 1426 1428 1429 1430 1431 1432 1432 1433 1434 1436 1438 1439 1440 1441 1442 1443 1444 1445 1446 1448 1449 1451 1452 1454 1455 1456 1457 1458 1459 1459 1460 1460 1461 1461 1461 1461 1462 1463 1463 1464 1465 1466 1466 1466 1467 1467 1467 1468 1468 1468 1468 1468 1468 1467 1467 1466 1466 1466 1466
1402 1402 1403 1404 1404 1405 1406 1406 1407 1407 1408 1408 1409 1409 1410 1411 1411 1412 1413 1414 1416 1417 1418 1419 1420 1422 1424 1425 1426 1427 1428 1429 1431 1431 1432 1434 1435 1436 1437 1438 1440 1441 1441 1442 1443 1445 1446 1447 1449 1450 1452 1453 1454 1455 1456 1457 1457 1458 1459 1459 1459 1459 1460 1460 1461 1462 1463 1463 1464 1465 1465 1465 1466 1466 1466 1466 1466 1466 1466 1466 1465 1465 1465 1465 1465 1464
1402 1403 1403 1404 1404 1405 1405 1406 1406 1407 1407 1408 1409 1409 1410 1411 1411 1412 1412 1413 1414 1416 1417 1418 1419 1421 1422 1423 1424 1425 1426 1427 1429 1430 1432 1433 1434 1435 1436 1437 1439 1440 1441 1441 1443 1444 1445 1446 1447 1449 1450 1451 1452 1454 1455 1455 1456 1456 1457 1457 1457 1458 1458 1458 1459 1460 1461 1462 1462 1463 1463 1463 1464 1464 1464 1465 1465 1465 1464 1464 1463 1463 1463 1463 1462 1462
1402 1403 1403 1403 1404 1404 1405 1405 1406 1406 1407 1408 1408 1409 1410 1410 1411 1411 1412 1413 1414 1415 1416 1417 1419 1420 1421 1422 1423 1423 1424 1426 1427 1429 1431 1432 1433 1434 1436 1437 1438 1439 1440 1441 1442 1444 1445 1446 1447 1448 1449 1450 1451 1452 1453 1453 1454 1455 1455 1455 1456 1456 1456 1457 1458 1459 1459 1460 1461 1461 1461 1462 1462 1462 1462 1463 1463 1463 1462 1462 1461 1461 1461 1461 1461 1461
1402 1403 1403 1403 1404 1404 1404 1405 1405 1406 1407 1407 1408 1409 1409 1410 1411 1411 1412 1413 1414 1415 1416 1417 1419 1420 1421 1422 1422 1423 1423 1425 1426 1428 1430 1431 1432 1433 1435 1436 1437 1438 1440 1441 1442 1443 1444 1445 1446 1448 1448 1449 1450 1450 1451 1452 1452 1453 1453 1454 1454 1455 1455 1456 1456 1457 1458 1458 1459 1459 1460 1460 1460 1461 1461 1461 1461 1461 1461 1460 1460 1459 1459 1459 1459 1459
1402 1403 1403 1403 1403 1404 1404 1404 1405 1406 1406 1407 1408 1408 1409 1410 1410 1411 1412 1413 1414 1415 1416 1417 1418 1419 1421 1421 1422 1422 1422 1424 1426 1427 1429 1430 1431 1432 1434 1435 1436 1437 1438 1439 1440 1441 1442 1443 1445 1446 1447 1447 1448 1449 1450 1450 1451 1451 1451 1452 1452 1453 1454 1454 1455 1456 1456 1456 1457 1457 1458 1458 1459 1459 1459 1459 1459 1459 1459 1458 1458 1457 1457 1457 1457 1456
1402 1402 1403 1403 1403 1404 1404 1404 1405 1405 1406 1407 1407 1408 1409 1409 1410 1411 1412 1412 1413 1414 1415 1416 1417 1419 1420 1421 1421 1421 1422 1424 1425 1427 1428 1429 1430 1431 1432 1433 1434 1435 1436 1437 1438 1439 1440 1441 1442 1444 1445 1446 1446 1447 1448 1448 1449 1449 1450 1451 1451 1451 1452 1453 1453 1454 1454 1455 1456 1456 1456 1456 1457 1457 1457 1457 1457 1457 1457 1456 1456 1455 1455 1455 1455 1454
1402 1402 1403 1403 1403 1404 1404 1405 1405 1406 1406 1407 1407 1408 1409 1409 1410 1411 1411 1412 1413 1414 1415 1416 1417 1418 1419 1420 1421 1422 1423 1424 1425 1426 1427 1428 1429 1430 1431 1431 1432 1433 1434 1435 1436 1437 1438 1439 1440 1441 1443 1444 1445 1445 1446 1446 1447 1448 1448 1449 1450 1450 1451 1451 1452 1452 1453 1453 1454 1454 1455 1455 1455 1455 1455 1455 1455 1455 1455 1454 1454 1453 1453 1453 1452 1452
1402 1403 1403 1403 1404 1404 1404 1405 1405 1406 1406 1407 1408 1408 1409 1410 1410 1411 1411 1412 1413 1414 1415 1416 1416 1417 1418 1419 1420 1421 1422 1423 1425 1426 1426 1427 1428 1429 1430 1431 1431 1432 1433 1434 1435 1436 1437 1438 1439 1440 1441 1442 1443 1443 1444 1445 1446 1446 1447 1448 1449 1449 1450 1450 1450 1451 1451 1452 1452 1453 1453 1453 1453 1453 1453 1453 1453 1453 1453 1452 1452 1451 1451 1451 1450 1450
1403 1403 1403 1404 1404 1404 1405 1405 1406 1406 1407 1407 1408 1409 1409 1410 1410 1411 1411 1412 1413 1414 1415 1415 1416 1417 1418 1419 1420 1421 1421 1422 1424 1425 1426 1426 1427 1428 1429 1430 1431 1431 1432 1433 1434 1435 1436 1436 1437 1438 1439 1440 1441 1442 1442 1443 1444 1445 1446 1447 1447 1448 1448 1448 1449 1449 1450 1450 1451 1451 1451 1451 1451 1451 1451 1451 1451 1451 1451 1451 1450 1450 1449 1449 1448 1448
1404 1404 1404 1404 1405 1405 1405 1406 1406 1406 1407 1408 1408 1409 1410 1410 1411 1411 1412 1412 1413 1414 1414 1415 1416 1416 1417 1418 1419 1420 1421 1422 1423 1424 1425 1426 1426 1427 1428 1429 1430 1431 1432 1433 1433 1434 1435 1436 1436 1437 1438 1439 1440 1440 1441 1442 1443 1444 1445 1446 1446 1446 1446 1446 1447 1448 1448 1449 1449 1450 1450 1449 1449 1449 1449 1449 1449 1449 1449 1449 1448 1448 1447 1447 1446 1446
1404 1405 1405 1405 1405 1406 1406 1406 1406 1407 1408 1408 1409 1409 1410 1411 1411 1412 1412 1413 1413 1414 1414 1415 1416 1416 1417 1418 1419 1420 1421 1421 1422 1423 1424 1425 1426 1427 1428 1428 1429 1431 1431 1432 1433 1434 1434 1435 1436 1437 1438 1438 1439 1439 1440 1441 1442 1443 1444 1444 1445 1445 1445 1445 1446 1446 1447 1447 1448 1448 1447 1447 1447 1447 1447 1447 1447 1447 1447 1446 1446 1446 1446 1445 1445 1444
1405 1405 1406 1406 1406 1406 1406 1407 1407 1407 1408 1409 1409 1410 1411 1411 1411 1412 1412 1413 1413 1414 1415 1415 1416 1416 1417 1418 1419 1419 1420 1421 1422 1423 1424 1424 1425 1426 1426 1427 1428 1429 1430 1431 1432 1433 1434 1435 1436 1436 1437 1437 1438 1438 1439 1440 1441 1442 1442 1443 1443 1443 1443 1443 1444 1445 1445 1446 1446 1446 1445 1445 1445 1445 1446 1446 1446 1445 1445 1444 1444 1444 1443 1443 1443 1443
1406 1406 1406 1406 1406 1406 1407 1407 1408 1408 1409 1409 1410 1410 1411 1411 1412 1412 1413 1413 1414 1414 1415 1415 1416 1416 1417 1417 1418 1419 1420 1421 1421 1422 1423 1424 1424 1425 1426 1426 1427 1428 1429 1430 1431 1432 1433 1434 1434 1435 1436 1436 1437 1437 1438 1439 1440 1440 1441 1441 1441 1441 1441 1442 1442 1443 1443 1444 1444 1443 1443 1443 1443 1443 1443 1443 1443 1443 1443 1442 1442 1441 1441 1441 1441 1441
1406 1406 1406 1407 1407 1407 1407 1408 1408 1408 1409 1410 1410 1411 1411 1411 1412 1412 1413 1413 1414 1414 1415 1415 1416 1416 1416 1417 1418 1419 1419 1420 1421 1422 1422 1423 1424 1424 1425 1426 1426 1427 1428 1429 1430 1431 1431 1432 1433 1434 1434 1435 1436 1436 1437 1438 1438 1438 1439 1440 1440 1440 1440 1440 1441 1441 1441 1441 1441 1441 1441 1441 1441 1441 1441 1441 1441 1441 1441 1440 1440 1440 1439 1439 1439 1439
1407 1407 1407 1407 1407 1407 1408 1408 1408 1409 1409 1410 1410 1411 1411 1411 1412 1412 1413 1413 1414 1414 1415 1415 1415 1416 1416 1417 1417 1418 1419 1420 1420 1421 1422 1422 1423 1424 1424 1425 1425 1426 1427 1428 1429 1429 1430 1431 1431 1432 1433 1434 1434 1435 1436 1436 1436 1436 1437 1438 1438 1438 1438 1439 1439 1439 1440 1439 1439 1439 1439 1439 1439 1440 1440 1439 1439 1438 1438 1438 1438 1438 1437 1437 1437 1437
1407 1407 1407 1407 1408 1408 1408 1408 1409 1409 1410 1410 1411 1411 1411 1412 1412 1412 1413 1413 1414 1414 1414 1415 1415 1416 1416 1416 1417 1418 1418 1419 1420 1420 1421 1421 1422 1423 1423 1424 1425 1425 1426 1427 1427 1428 1429 1430 1430 1431 1431 1432 1433 1433 1434 1434 1434 1435 1436 1436 1436 1436 1436 1437 1437 1437 1437 1437 1437 1437 1437 1437 1437 1438 1437 1437 1437 1436 1436 1436 1436 1436 1436 1435 1435 1435
1408 1408 1408 1408 1408 1408 1409 1409 1409 1410 1410 1411 1411 1411 1411 1412 1412 1413 1413 1413 1414 1414 1414 1415 1415 1415 1416 1416 1416 1417 1418 1418 1419 1419 1420 1421 1421 1422 1422 1423 1423 1424 1425 1426 1426 1427 1427 1428 1429 1429 1430 1430 1431 1432 1432 1432 1433 1433 1433 1434 1434 1435 1435 1435 1435 1435 1435 1435 1435 1435 1435 1436 1436 1436 1435 1435 1435 1435 1434 1434 1434 1434 1434 1434 1434 1434
1408 1408 1408 1409 1409 1409 1409 1410 1410 1410 1411 1411 1411 1411 1412 1412 1412 1413 1413 1413 1414 1414 1414 1414 1415 1415 1415 1416 1416 1416 1417 1417 1418 1419 1419 1420 1420 1421 1421 1422 1422 1423 1424 1424 1425 1425 1426 1426 1427 1428 1428 1429 1430 1430 1431 1431 1431 1431 1431 1431 1432 1432 1433 1433 1433 1433 1433 1433 1433 1433 1433 1433 1433 1433 1433 1433 1433 1433 1433 1432 1432 1432 1432 1432 1432 1432
1409 1409 1409 1409 1409 1410 1410 1410 1410 1411 1411 1411 1411 1412 1412 1412 1413 1413 1413 1414 1414 1414 1414 1414 1414 1415 1415 1415 1416 1416 1416 1417 1417 1418 1418 1419 1419 1420 1420 1421 1421 1422 1422 1423 1424 1424 1425 1425 1426 1426 1427 1427 1428 1428 1429 1429 1429 1429 1430 1430 1430 1430 1431 1431 1431 1431 1431 1431 1431 1431 1431 1431 1431 1431 1431 1431 1431 1431 1431 1431 1431 1431 1431 1431 1431 1431
1409 1410 1410 1410 1410 1410 1410 1411 1411 1411 1411 1411 1411 1412 1412 1412 1413 1413 1413 1414 1414 1414 1414 1414 1415 1415 1415 1415 1416 1416 1416 1416 1417 1417 1417 1418 1418 1419 1419 1420 1420 1421 1421 1422 1422 1423 1424 1424 1425 1425 1426 1426 1426 1427 1427 1427 1427 1427 1427 1427 1428 1428 1429 1429 1429 1429 1429 1429 1429 1429 1429 1429 1429 1429 1429 1429 1429 1429 1429 1429 1429 1429 1429 1429 1429 1429
1410 1410 1410 1410 1410 1410 1411 1411 1411 1411 1411 1411 1412 1412 1412 1412 1413 1413 1413 1413 1414 1414 1414 1415 1415 1415 1415 1415 1415 1416 1416 1416 1416 1417 1417 1417 1418 1418 1418 1419 1419 1420 1420 1421 1421 1422 1422 1423 1423 1424 1424 1425 1425 1425 1425 1425 1426 1426 1426 1426 1426 1426 1427 1427 1426 1427 1427 1427 1427 1427 1427 1427 1427 1426 1426 1426 1426 1426 1427 1427 1427 1427 1427 1427 1427 1427
1410 1410 1410 1410 1410 1411 1411 1411 1411 1411 1411 1411 1412 1412 1412 1412 1412 1413 1413 1413 1414 1414 1414 1414 1415 1415 1415 1415 1415 1416 1416 1416 1416 1416 1417 1417 1417 1417 1418 1418 1418 1418 1419 1419 1420 1420 1421 1421 1422 1422 1423 1423 1423 1423 1423 1423 1424 1424 1424 1424 1425 1425 1425 1425 1425 1425 1425 1426 1425 1425 1425 1425 1425 1424 1424 1424 1424 1424 1425 1425 1426 1426 1426 1426 1426 1426
1410 1410 1410 1410 1410 1410 1411 1411 1411 1411 1411 1411 1412 1412 1412 1412 1412 1412 1413 1413 1413 1414 1414 1414 1414 1415 1415 1415 1415 1415 1416 1416 1416 1416 1416 1416 1416 1417 1417 1417 1417 1417 1418 1418 1418 1419 1420 1420 1421 1421 1421 1421 1422 1422 1421 1422 1422 1422 1423 1423 1423 1423 1423 1423 1423 1424 1424 1424 1424 1423 1423 1423 1422 1422 1421 1421 1421 1422 1422 1423 1424 1424 1425 1425 1424 1424
1410 1410 1410 1410 1410 1410 1410 1411 1411 1411 1411 1411 1411 1411 1411 1412 1412 1412 1412 1413 1413 1413 1414 1414 1414 1414 1414 1415 1415 1415 1415 1415 1415 1416 1416 1416 1416 1416 1416 1416 1416 1417 1417 1417 1417 1418 1418 1419 1419 1419 1420 1420 1420 1421 1420 1420 1421 1421 1421 1421 1421 1421 1421 1421 1421 1422 1422 1422 1422 1422 1421 1421 1421 1420 1420 1420 1419 1419 1420 1421 1422 1422 1423 1423 1423 1423
1409 1409 1409 1409 1410 1410 1410 1410 1411 1411 1411 1411 1411 1411 1411 1411 1411 1412 1412 1412 1413 1413 1413 1414 1414 1414 1414 1414 1414 1414 1414 1414 1415 1415 1415 1415 1415 1415 1415 1416 1416 1416 1416 1416 1416 1417 1418 1418 1418 1418 1418 1418 1419 1419 1419 1419 1419 1420 1420 1420 1420 1420 1420 1420 1420 1420 1420 1421 1420 1420 1420 1420 1419 1418 1418 1418 1417 1417 1418 1418 1419 1421 1421 1421 1421 1421